Weather History for KSSF - July, 2013

Change the Weather History Date:

Tuesday, July 9, 2013

  Actual Average Record
Temperature  
Mean Temperature 88 °F -  
Max Temperature 100 °F 92 °F 100 °F (1998)
Min Temperature 75 °F 71 °F 46 °F (2014)
Cooling Degree Days 22    
Growing Degree Days 38 (Base 50)    
Moisture  
Dew Point 71 °F    
Average Humidity 70    
Maximum Humidity 94    
Minimum Humidity 33    
Precipitation  
Precipitation 0.00 in - - ()
Sea Level Pressure  
Sea Level Pressure 30.06 in    
Wind  
Wind Speed 6 mph (SE)    
Max Wind Speed 15 mph    
Max Gust Speed 21 mph    
Visibility 8 miles    
Events      
Averages and records for this station are not official NWS values.
T = Trace of Precipitation, MM = Missing Value Source: NWS Daily Summary

Daily Weather History Graph

Daily Weather History Graph

Search for Another Location

Airport or City:

Trip Planner

Search our weather history database for the weather conditions in past years. The results will help you decide how hot, cold, wet, or windy it might be!

Date:

Astronomy

Jul. 09, 2013 Rise Set
Actual Time 6:41 AM CDT 8:36 PM CDT
Civil Twilight 6:14 AM CDT 9:03 PM CDT
Nautical Twilight 5:42 AM CDT 9:35 PM CDT
Astronomical Twilight 5:07 AM CDT 10:10 PM CDT
Moon 7:57 AM CDT (7/9) 9:27 PM CDT (7/9)
Length of Visible Light 14h 48m
Length of Day
13h 55m
New Moon, 2% of the Moon is Illuminated
Jul 9
New Moon
Jul 15
First Quarter
Jul 22
Full
Jul 29
Last Quarter
Aug 6
New

Hourly Weather History & Observations

Time (CDT) Temp. Heat Index Dew Point Humidity Pressure Visibility Wind Dir Wind Speed Gust Speed Precip Events Conditions
12:53 AM 80.1 °F 83.6 °F 71.1 °F 74% 30.06 in 10.0 mi SSE 6.9 mph - N/A   Clear
1:53 AM 77.0 °F - 72.0 °F 84% 30.07 in 10.0 mi SE 4.6 mph - N/A   Partly Cloudy
2:53 AM 75.9 °F - 72.0 °F 87% 30.06 in 10.0 mi Calm Calm - N/A   Clear
3:53 AM 75.9 °F - 72.0 °F 87% 30.06 in 9.0 mi Calm Calm - N/A   Clear
4:51 AM 75.2 °F - 71.6 °F 89% 30.10 in 7.0 mi SE 3.5 mph - N/A   Scattered Clouds
4:53 AM 75.0 °F - 71.1 °F 87% 30.06 in 8.0 mi Calm Calm - N/A   Scattered Clouds
5:01 AM 75.2 °F - 71.6 °F 89% 30.10 in 7.0 mi Calm Calm - N/A   Mostly Cloudy
5:53 AM 75.9 °F - 73.0 °F 91% 30.06 in 7.0 mi Calm Calm - N/A   Overcast
6:37 AM 77.0 °F - 73.4 °F 89% 30.10 in 7.0 mi Calm Calm - N/A   Overcast
6:53 AM 75.9 °F - 73.9 °F 94% 30.06 in 2.0 mi SE 3.5 mph - N/A   Overcast
7:00 AM 75.2 °F - 73.4 °F 94% 30.10 in 1.5 mi SE 3.5 mph - N/A   Overcast
7:32 AM 77.0 °F - 75.2 °F 94% 30.11 in 3.0 mi SE 4.6 mph - N/A   Overcast
7:46 AM 78.8 °F - 75.2 °F 89% 30.11 in 5.0 mi SE 6.9 mph - N/A   Overcast
7:53 AM 78.1 °F - 75.0 °F 90% 30.09 in 5.0 mi SE 4.6 mph - N/A   Overcast
8:12 AM 78.8 °F - 75.2 °F 89% 30.13 in 7.0 mi SE 6.9 mph - N/A   Overcast
8:53 AM 81.0 °F 86.7 °F 75.0 °F 82% 30.11 in 10.0 mi SSE 5.8 mph - N/A   Overcast
9:12 AM 80.6 °F 86.2 °F 75.2 °F 84% 30.14 in 10.0 mi SSE 9.2 mph - N/A   Overcast
9:34 AM 82.4 °F 88.2 °F 73.4 °F 74% 30.14 in 10.0 mi ESE 9.2 mph - N/A   Scattered Clouds
9:53 AM 84.0 °F 91.2 °F 73.9 °F 72% 30.11 in 10.0 mi ESE 10.4 mph - N/A   Scattered Clouds
10:53 AM 87.1 °F 93.6 °F 72.0 °F 61% 30.09 in 10.0 mi ESE 8.1 mph - N/A   Scattered Clouds
11:53 AM 91.0 °F 96.6 °F 70.0 °F 50% 30.08 in 10.0 mi SE 12.7 mph 17.3 mph N/A   Clear
12:53 PM 91.9 °F 96.9 °F 69.1 °F 47% 30.07 in 10.0 mi SSE 9.2 mph - N/A   Partly Cloudy
1:53 PM 96.1 °F 101.0 °F 68.0 °F 40% 30.04 in 10.0 mi SSE 10.4 mph 19.6 mph N/A   Partly Cloudy
2:53 PM 95.0 °F 97.9 °F 66.0 °F 38% 30.03 in 10.0 mi SE 6.9 mph - N/A   Scattered Clouds
3:53 PM 98.1 °F 101.8 °F 66.0 °F 35% 30.00 in 10.0 mi SSE 8.1 mph 16.1 mph N/A   Partly Cloudy
4:53 PM 100.0 °F 104.2 °F 66.0 °F 33% 29.97 in 10.0 mi SE 6.9 mph 17.3 mph N/A   Partly Cloudy
5:53 PM 98.1 °F 101.8 °F 66.0 °F 35% 29.96 in 10.0 mi SE 10.4 mph - N/A   Partly Cloudy
6:53 PM 95.0 °F 100.7 °F 69.1 °F 43% 29.96 in 10.0 mi ESE 11.5 mph - N/A   Clear
7:53 PM 93.0 °F 97.9 °F 69.1 °F 45% 29.96 in 10.0 mi SE 15.0 mph - N/A   Partly Cloudy
8:53 PM 91.0 °F 95.6 °F 69.1 °F 48% 29.97 in 10.0 mi SE 11.5 mph - N/A   Clear
9:53 PM 88.0 °F 93.8 °F 71.1 °F 57% 29.98 in 10.0 mi SE 12.7 mph 20.7 mph N/A   Clear
10:53 PM 84.9 °F 90.7 °F 72.0 °F 65% 30.01 in 10.0 mi SE 11.5 mph - N/A   Clear
11:53 PM 82.9 °F 88.0 °F 72.0 °F 69% 30.03 in 10.0 mi SE 9.2 mph - N/A   Clear